Wind_Speed
29 30 31 30 30 30 29 30 29 25 23 20 17 17 20 21 23 23 19 19 23 30 28 26 26 23 24 26 18 17 30 33 28 23 26 28 24 24 27 27 25 23 24 23 21 20 20 19 19 21 26 28 27 25 22 17 15 17 20 20 18 16 17 19 18 14 12 11 10 7 7 9 9 9 9 10 11 11 12 12 12 13 13 13 14 14
28 28 28 27 28 29 28 29 27 26 27 28 24 17 16 22 20 17 18 21 22 29 27 24 23 25 26 27 24 21 26 28 29 27 26 28 26 26 28 27 26 26 26 24 22 21 22 23 24 27 29 27 25 21 19 18 20 23 23 22 19 17 15 13 13 13 12 10 9 9 9 8 7 7 8 9 10 11 12 13 13 13 14 14 13 13
27 25 25 26 26 27 28 29 27 27 30 31 30 23 19 20 18 17 18 22 24 29 26 18 20 24 26 28 27 27 23 23 27 29 25 27 27 27 29 29 28 27 26 25 23 23 25 27 28 28 27 25 22 18 18 21 22 23 22 23 21 17 14 11 8 7 10 11 11 12 10 7 9 10 10 11 12 13 13 14 14 14 14 14 14 13
24 22 23 23 24 25 26 27 26 29 32 31 32 29 24 18 16 18 16 18 26 33 31 22 15 20 25 30 29 28 28 24 27 28 24 26 29 29 31 31 28 26 27 28 27 27 29 29 27 25 24 23 21 19 21 22 21 20 20 21 21 17 16 18 18 17 18 19 18 15 11 9 12 14 15 15 14 14 15 15 14 14 13 13 13 12
21 21 22 23 24 24 27 28 26 27 29 27 28 31 28 20 14 16 16 20 31 37 35 27 22 22 22 26 26 28 34 32 28 28 22 22 27 31 32 32 31 27 29 31 31 32 31 27 24 23 24 24 23 21 19 18 17 18 19 21 22 22 23 25 27 26 25 26 22 14 12 13 15 17 18 17 17 17 17 15 15 14 13 11 11 11
19 20 21 21 21 20 25 29 27 24 23 23 24 27 28 22 18 15 19 24 30 35 33 28 30 31 24 24 24 25 32 32 28 27 20 18 25 32 35 35 33 28 30 33 33 33 30 26 25 25 27 25 22 19 15 14 15 17 19 20 23 26 28 28 30 30 26 25 23 17 16 17 17 19 19 19 18 18 17 16 15 14 13 11 10 11
18 21 20 14 15 17 19 23 24 22 21 22 23 22 23 25 22 20 20 23 25 28 26 21 24 29 26 27 27 24 25 27 32 32 27 24 27 33 36 34 31 30 33 35 34 32 28 25 24 25 26 24 21 18 16 16 16 17 17 18 22 26 28 27 28 29 26 22 22 23 21 19 18 19 18 18 18 17 17 16 15 14 13 12 11 11
19 22 23 17 17 18 17 17 18 19 20 20 20 20 21 25 26 24 22 23 27 24 22 19 17 21 23 22 23 24 22 23 29 32 29 28 30 35 36 32 30 33 36 35 34 32 28 25 24 25 26 25 22 19 16 15 14 13 13 11 14 19 23 24 23 25 25 23 23 24 22 20 21 21 19 18 17 17 17 16 15 14 14 13 12 11
19 22 25 23 21 17 13 14 14 16 18 17 18 18 18 24 29 27 22 21 28 26 24 21 18 19 22 18 16 19 22 23 24 24 26 29 31 36 35 32 32 35 35 33 32 31 27 27 28 26 26 25 22 17 14 14 12 10 9 8 8 11 16 20 21 23 25 24 22 19 18 20 23 22 19 18 17 17 18 16 15 14 14 14 13 13
20 23 26 25 21 15 11 12 13 15 13 14 19 15 11 19 29 31 24 17 22 26 23 21 18 20 21 22 22 23 24 24 22 20 23 28 32 35 33 32 34 36 32 31 33 32 28 28 27 27 27 24 19 14 13 14 12 10 8 7 8 10 13 19 23 25 25 23 20 17 20 23 23 22 19 18 18 18 18 16 15 14 13 13 13 14
20 22 26 28 22 15 14 13 9 12 12 16 19 14 10 16 24 32 30 17 17 23 22 19 19 20 18 19 24 25 23 21 19 20 23 26 29 34 31 28 34 35 31 31 32 29 27 27 26 27 25 19 14 12 13 12 11 9 8 8 9 11 13 15 19 23 23 23 24 23 26 24 21 20 18 18 18 18 17 16 15 15 13 12 12 14
22 23 25 24 20 18 19 15 9 10 16 21 20 17 17 17 18 26 29 22 21 23 20 17 18 20 19 19 20 20 19 19 18 18 21 23 26 31 28 25 30 33 29 29 29 26 26 26 24 23 20 17 14 12 13 13 11 10 9 9 8 9 10 11 11 15 18 21 25 26 24 21 19 18 17 18 18 17 17 16 15 14 13 12 11 12
25 27 25 18 16 20 21 17 14 13 19 24 22 20 18 15 15 21 24 25 28 26 17 14 19 21 20 21 21 20 21 22 21 20 20 22 25 28 27 24 26 29 26 25 26 26 26 25 24 23 21 20 15 10 10 12 11 10 9 8 8 9 9 8 7 10 15 19 22 22 19 17 17 16 16 17 17 16 16 15 14 14 12 12 11 12
26 28 27 20 17 20 21 18 16 13 17 20 19 19 18 16 19 23 25 25 25 23 18 16 20 21 20 23 25 26 24 21 23 26 23 20 20 22 25 26 25 25 25 25 25 25 24 21 22 24 24 21 14 8 8 9 10 10 8 8 10 11 10 8 7 8 11 13 15 15 15 15 16 16 16 16 16 16 16 16 14 13 12 11 12 12
24 25 26 23 20 21 19 18 16 12 15 17 15 17 19 18 19 21 22 22 17 17 19 19 22 22 22 26 28 28 24 18 21 27 23 19 19 21 26 30 28 25 25 23 22 22 21 19 20 20 21 20 14 8 7 8 9 10 10 10 11 11 11 10 9 8 8 9 10 10 12 13 16 16 16 16 17 18 17 16 15 12 11 11 11 11
23 23 22 21 21 22 19 18 20 16 14 16 17 19 21 19 19 19 19 19 17 18 21 22 24 24 25 27 25 24 24 23 23 23 23 25 26 26 27 27 27 25 23 20 19 19 19 20 19 17 18 17 12 8 7 8 9 10 11 11 12 12 13 12 10 8 8 7 8 10 10 12 15 17 17 17 19 19 18 17 14 12 11 10 10 10
22 19 18 19 20 23 21 20 23 20 15 15 16 19 20 19 19 18 18 19 20 21 21 22 24 25 26 27 25 23 28 30 26 24 26 29 30 29 24 21 23 25 22 18 17 18 19 20 16 13 13 13 12 10 9 9 9 11 12 12 12 12 12 13 12 10 9 8 10 11 13 15 17 19 19 20 21 21 19 17 14 11 10 10 9 10
23 20 19 19 19 21 21 21 22 20 17 15 15 17 17 16 17 18 17 17 20 23 20 18 20 21 22 26 27 27 29 28 27 29 30 29 29 29 24 22 24 25 23 20 19 20 19 15 12 11 10 10 11 10 9 11 12 12 13 13 13 13 13 14 13 13 13 12 13 13 14 16 17 19 21 22 23 22 20 17 14 11 10 10 10 11
26 24 22 19 17 19 20 22 22 21 20 17 15 16 17 19 21 20 21 20 19 21 21 18 17 18 19 22 25 29 29 26 26 29 28 28 29 29 27 26 27 26 25 23 22 23 20 15 12 12 10 8 8 9 10 14 15 15 15 15 15 16 16 15 14 15 16 15 16 15 15 15 16 18 21 23 24 22 19 17 13 11 11 10 11 12
26 25 23 21 20 19 21 23 24 24 23 19 18 18 19 24 25 22 23 23 17 16 19 18 18 20 21 21 23 26 25 22 24 27 26 27 29 29 28 27 27 27 27 24 20 18 16 14 13 13 12 11 12 14 16 18 20 19 18 18 19 19 18 17 17 18 17 17 17 17 17 17 17 17 20 23 23 20 18 16 14 13 12 12 12 12
29 26 23 21 22 22 22 23 24 26 23 21 23 23 20 22 26 24 22 22 20 17 15 16 21 24 23 22 23 24 21 19 22 24 25 26 27 27 26 25 25 26 26 24 22 18 14 16 19 20 21 21 20 21 22 22 22 22 22 22 22 21 20 19 18 18 18 18 19 20 19 18 16 14 16 20 21 20 19 17 16 15 15 14 13 12
33 30 26 21 21 25 21 17 22 26 24 20 21 24 23 21 22 23 20 20 22 21 16 17 23 25 24 23 25 25 24 24 26 26 25 25 26 25 23 22 22 22 20 21 22 23 23 23 24 26 27 27 25 25 25 25 25 24 24 25 25 23 21 20 20 20 20 20 21 21 21 19 16 13 13 17 19 21 22 20 19 18 17 16 15 14
34 33 32 29 25 25 24 19 21 23 23 22 19 21 24 22 23 25 22 19 22 23 20 21 23 24 24 25 26 27 28 28 29 28 27 25 26 26 24 24 25 24 24 25 25 26 27 28 29 29 29 29 29 28 28 29 28 27 26 26 26 24 22 21 21 22 21 21 21 20 20 19 18 16 16 17 18 20 21 21 21 20 18 18 17 16
31 31 35 36 34 32 29 27 26 20 18 22 20 20 21 20 23 28 26 23 24 25 23 22 22 23 23 24 26 28 29 29 29 29 27 25 25 26 26 27 29 29 30 31 31 30 31 32 32 32 32 31 30 30 31 31 30 29 28 27 26 25 24 22 22 21 20 20 20 20 19 19 19 19 18 18 18 19 20 21 21 20 19 19 18 17
31 30 32 33 34 36 33 31 31 26 25 25 22 22 23 19 20 23 24 26 27 27 25 22 22 25 24 24 25 28 29 30 31 30 26 24 24 26 27 29 30 30 32 33 33 33 34 34 34 34 35 34 33 33 32 31 30 29 28 27 25 24 23 22 21 20 19 19 19 19 20 20 21 20 20 19 19 20 21 21 21 20 19 18 18 17
32 32 34 32 31 32 33 33 32 28 29 28 22 22 23 21 21 23 23 25 28 28 27 26 26 27 27 27 28 28 29 29 30 29 27 24 23 25 27 29 30 31 33 33 33 34 35 35 36 36 36 35 34 33 31 29 28 27 27 27 24 22 20 20 20 19 19 19 19 19 20 20 19 19 20 20 19 20 20 20 20 19 18 17 18 18
31 32 35 36 33 30 30 32 31 28 28 27 24 24 23 21 23 26 27 27 26 26 28 29 30 30 29 29 29 29 29 29 29 29 27 25 25 26 27 29 30 32 33 34 34 35 35 36 36 36 36 35 33 31 29 27 25 24 26 28 24 21 18 17 15 15 14 14 14 14 15 15 15 16 17 18 18 18 18 18 18 18 18 18 19 19
29 29 30 31 31 31 30 28 29 29 29 28 27 27 26 24 25 29 32 32 29 28 29 29 30 31 31 30 31 31 31 30 30 30 29 27 27 28 29 30 30 32 33 33 34 34 34 34 34 34 35 34 31 29 27 26 25 23 22 22 22 20 18 16 16 15 13 12 11 11 12 13 14 15 16 17 18 18 18 18 18 19 19 19 19 19
28 29 30 30 29 31 31 29 28 28 28 29 28 27 27 29 29 28 30 33 34 34 34 30 29 29 29 29 30 31 30 29 28 28 28 29 30 30 31 30 31 32 32 33 33 32 32 32 32 32 33 33 31 29 27 26 25 22 17 15 15 14 14 16 19 20 18 15 14 14 14 15 15 16 17 18 19 19 19 19 19 19 19 19 19 20
26 28 30 31 31 33 34 33 32 31 30 30 29 28 29 29 29 27 27 30 34 37 37 34 30 28 27 29 30 29 29 29 28 27 28 30 31 33 33 33 32 32 32 32 32 32 31 31 31 31 32 32 31 30 29 27 27 25 22 22 20 19 20 20 21 21 20 18 16 16 17 18 18 18 18 19 20 20 20 21 21 21 21 21 22 22
24 25 27 29 31 33 35 36 36 35 35 33 31 30 29 28 28 29 28 29 32 35 36 35 33 31 29 29 30 29 29 28 28 29 30 31 30 30 32 34 33 32 32 31 31 30 30 30 29 29 29 30 30 30 30 30 30 28 28 28 28 28 28 25 21 19 19 18 18 18 19 20 20 20 21 21 22 23 23 23 23 23 23 24 24 24
24 24 24 24 26 27 28 30 32 33 34 35 34 33 32 32 32 32 31 30 30 32 33 34 34 34 34 33 33 33 32 31 29 28 30 32 31 29 29 32 33 32 30 30 29 29 29 29 28 28 29 29 30 30 30 30 30 29 29 30 30 29 28 26 25 24 23 23 23 22 22 22 23 23 23 24 25 26 25 25 25 25 26 27 27 26
21 23 23 23 23 23 23 24 25 26 27 29 31 32 34 36 38 37 36 34 32 31 32 34 35 35 35 35 36 36 36 35 33 30 28 28 28 27 27 30 31 30 28 28 28 28 29 29 29 29 29 30 30 31 31 30 30 30 30 31 31 30 30 30 30 30 29 29 27 25 25 25 25 26 27 27 28 29 28 27 28 27 28 29 29 28
18 19 20 20 20 21 21 21 21 23 23 23 23 24 26 30 34 34 35 36 37 35 34 35 35 34 35 36 36 36 36 36 35 33 30 28 27 27 28 30 31 30 30 30 30 30 31 31 31 31 31 31 32 32 32 32 33 33 33 33 33 33 34 34 34 34 33 32 32 31 31 30 29 30 31 30 31 32 31 31 31 30 30 31 31 31
21 20 20 20 20 20 20 20 20 21 22 22 22 22 22 23 27 29 30 33 36 37 37 38 38 36 35 36 36 36 36 36 35 34 32 31 30 29 30 31 32 32 32 33 33 33 33 33 33 33 33 33 34 35 35 35 36 36 36 35 35 35 36 36 36 37 37 37 38 38 37 37 36 37 36 35 35 35 35 35 35 36 36 35 36 36
24 23 22 22 22 21 21 21 21 21 21 21 23 23 22 23 25 26 27 29 30 32 34 37 39 39 39 38 38 37 37 37 36 35 33 32 31 31 32 33 34 34 34 35 36 36 36 36 36 36 36 37 37 37 38 38 39 39 39 39 39 38 38 38 38 39 39 39 40 41 41 41 41 41 41 40 40 40 40 40 41 42 41 39 38 36
26 25 24 23 22 22 21 22 23 23 21 21 23 24 25 26 25 25 27 28 28 28 29 31 33 35 37 39 41 41 41 39 38 36 36 35 33 33 34 36 37 37 37 38 38 39 39 39 39 38 38 40 41 41 41 40 40 41 42 42 42 40 39 40 40 41 42 43 44 44 45 44 43 43 43 42 42 42 42 43 43 42 42 40 37 34
28 28 27 25 25 25 24 23 23 25 24 22 24 26 25 24 24 25 27 28 29 30 30 29 28 29 30 32 35 38 41 41 40 39 38 38 37 36 36 37 39 40 40 40 40 41 41 41 41 40 40 43 44 43 43 43 43 44 45 45 44 43 42 43 44 45 46 47 46 47 47 47 47 45 43 41 42 43 43 43 43 42 41 40 37 35
31 30 30 29 29 30 29 26 26 28 26 24 24 24 23 24 26 27 27 27 28 30 30 29 27 28 28 29 29 31 35 38 40 41 41 41 40 39 40 41 42 43 44 44 44 44 44 44 43 43 44 46 46 45 45 45 43 43 44 44 44 45 45 46 47 48 49 49 48 47 48 49 50 48 44 44 46 47 46 46 45 44 44 42 41 40
31 33 33 32 31 31 30 29 30 30 28 28 28 26 25 25 25 26 26 27 29 30 30 29 28 27 28 30 31 32 33 34 34 34 36 38 38 39 40 41 43 45 46 47 48 48 48 47 47 47 47 49 49 48 48 48 46 45 44 45 46 47 46 46 47 48 49 51 50 48 47 49 49 49 48 48 49 48 47 45 45 47 48 49 49 50
27 29 30 31 32 31 29 29 30 30 29 30 30 29 26 23 21 23 25 28 30 31 30 30 30 29 30 32 34 35 34 33 30 28 28 31 34 36 37 39 41 44 46 48 49 50 50 50 50 51 50 50 49 48 47 47 47 47 46 46 47 47 46 46 45 44 46 48 48 48 48 49 49 48 49 49 49 48 48 49 51 53 55 56 57 57
23 24 25 28 31 31 30 30 30 30 30 31 31 31 30 28 26 27 27 29 31 31 31 32 32 31 32 34 35 35 35 35 33 30 29 31 32 33 35 36 38 41 44 47 49 51 52 53 53 54 54 53 52 52 52 51 51 51 51 51 50 50 50 50 49 48 49 49 50 50 52 53 54 54 54 54 54 54 55 56 58 59 60 61 61 61
24 24 25 27 28 29 30 32 33 32 32 31 32 33 33 32 31 31 31 31 33 32 32 33 32 31 31 32 33 34 34 35 35 34 33 34 35 36 36 37 37 39 41 43 46 48 50 52 54 55 57 57 57 57 58 58 58 58 58 58 58 58 58 58 58 58 58 58 58 58 58 59 60 61 61 61 61 61 61 62 62 62 63 63 64 64
26 26 27 28 28 28 30 31 33 34 33 33 33 33 35 35 34 33 32 32 34 34 34 34 33 32 32 32 32 33 34 34 36 36 36 37 38 39 39 40 40 41 41 42 43 45 46 48 50 51 53 54 55 56 57 57 58 58 59 59 59 59 59 59 60 60 60 60 60 60 61 61 61 62 62 62 63 63 63 64 64 64 64 64 65 65
27 28 30 31 31 31 31 32 33 34 34 34 34 35 35 36 36 36 35 33 33 35 36 35 35 34 34 34 34 34 34 35 36 38 39 40 40 40 40 41 42 43 44 44 45 45 46 47 48 49 50 51 52 53 53 54 55 55 56 56 56 56 57 57 57 58 58 59 60 60 61 61 62 62 63 63 64 64 65 65 65 65 66 66 67 67
28 30 32 33 34 35 35 36 35 35 35 35 36 36 36 36 37 38 38 36 35 36 37 37 38 38 38 38 37 36 36 36 37 39 40 41 41 42 42 42 42 43 43 43 44 44 45 45 46 47 49 50 50 51 52 52 53 54 54 55 56 56 57 57 58 58 59 60 61 62 62 63 64 64 65 65 66 66 67 67 67 68 68 68 69 69
27 30 32 33 35 36 38 39 39 40 40 40 40 40 40 40 40 40 39 39 39 39 39 40 41 41 42 41 39 38 38 37 38 40 42 42 43 43 42 42 42 42 41 41 42 43 43 44 46 47 48 49 50 51 52 53 53 55 56 56 57 58 59 59 60 61 62 62 63 64 65 66 66 67 67 67 68 68 69 69 69 69 70 70 70 70
24 28 30 31 31 32 34 36 38 40 41 43 44 45 45 45 46 45 44 44 43 43 42 42 43 43 43 43 42 41 40 40 40 41 44 45 46 45 44 43 43 43 43 43 44 46 46 47 49 50 52 53 53 54 55 56 57 58 58 59 60 60 61 62 63 64 64 65 66 67 67 68 69 69 69 70 70 70 70 69 69 69 69 69 69 70
23 25 26 26 27 27 29 31 33 35 37 39 41 43 45 46 48 48 49 49 48 47 46 46 45 45 44 43 43 42 42 42 42 42 43 45 46 46 46 47 47 47 47 48 49 50 50 51 52 53 54 55 55 56 57 58 59 60 60 61 62 63 63 64 65 65 66 67 67 68 69 69 69 70 70 70 70 69 69 69 69 68 68 68 69 70
22 23 23 24 25 24 25 28 29 31 32 33 34 36 37 40 42 44 46 48 49 49 48 48 48 48 48 47 46 45 44 43 44 45 46 45 45 45 46 47 48 49 49 49 50 51 52 53 54 55 56 56 57 57 58 59 60 60 61 62 62 63 64 64 65 65 65 66 66 67 67 68 68 68 68 68 68 67 67 67 66 66 65 65 65 66
21 22 22 23 23 23 23 25 26 27 27 27 28 28 29 30 32 34 35 38 40 42 44 44 45 46 48 49 49 48 48 48 48 49 50 50 49 49 49 50 51 51 51 52 53 54 55 56 56 57 57 57 57 57 58 58 59 60 60 61 61 62 62 62 63 63 63 64 64 64 65 64 64 64 64 63 63 62 62 61 60 60 60 60 60 61
Wind_Direction
243 241 240 240 241 241 240 240 240 239 234 224 226 243 253 247 238 233 209 201 239 253 255 259 244 220 211 199 181 211 218 220 232 221 219 235 238 237 243 246 252 256 257 260 258 254 253 252 251 248 248 250 249 249 250 250 251 244 237 239 237 225 216 215 220 221 208 206 211 213 224 232 242 259 271 288 299 302 301 297 296 294 290 287 288 292
243 243 243 241 241 242 239 239 237 233 229 219 212 213 244 254 239 228 213 202 231 248 248 256 242 215 212 208 192 208 234 241 235 223 225 237 239 239 242 247 253 255 255 257 256 254 252 250 247 243 246 255 258 257 256 251 246 240 233 232 228 216 213 216 216 214 212 221 233 223 220 238 265 285 287 292 295 295 292 289 288 286 284 282 281 286
245 245 245 242 241 241 239 240 235 232 232 225 217 202 208 236 231 220 217 202 221 244 236 236 246 228 216 214 204 202 227 254 240 218 222 242 244 243 246 248 254 257 259 262 260 255 252 248 247 247 251 262 268 266 263 258 250 246 241 238 233 225 227 230 219 223 226 220 226 236 245 271 291 295 294 293 294 292 288 284 282 280 280 279 279 280
246 244 244 242 240 240 240 240 234 230 232 229 223 214 205 213 219 217 214 201 219 239 228 205 229 243 226 220 219 215 216 230 241 232 226 239 247 250 250 250 255 259 263 264 260 257 254 251 253 255 256 261 264 261 257 253 246 246 247 242 240 239 239 237 238 250 252 236 234 246 261 280 290 293 296 297 296 293 288 283 280 278 275 275 277 279
244 242 240 239 239 241 239 237 237 232 232 234 228 227 224 208 198 213 216 213 223 237 235 217 218 232 229 225 225 232 228 219 236 251 237 231 248 254 251 254 258 259 262 259 256 258 257 254 255 256 256 256 256 256 254 248 240 241 241 236 235 235 233 230 232 242 254 252 247 254 272 284 294 299 298 298 294 290 288 284 281 278 274 273 274 278
238 239 237 240 240 237 238 238 240 236 230 232 227 230 233 206 178 200 221 224 226 236 244 241 233 226 224 225 218 232 240 226 227 245 242 237 253 256 254 257 260 261 262 257 254 257 256 254 255 256 258 256 253 256 260 258 250 248 247 243 239 235 230 228 229 235 246 253 252 259 279 289 295 298 295 293 290 286 284 281 277 275 273 274 276 280
232 234 232 233 228 224 238 241 236 231 226 228 227 226 228 214 196 190 209 232 236 234 239 246 239 227 225 229 223 232 248 240 236 245 252 252 253 255 254 256 260 263 260 254 253 257 259 259 255 254 258 257 254 253 255 256 252 250 254 256 252 243 236 235 238 238 237 246 255 259 269 278 281 285 285 284 283 281 277 273 269 269 269 272 276 282
229 233 232 224 228 236 245 242 230 228 228 226 226 223 217 220 217 192 189 230 243 235 234 242 241 226 224 234 239 244 248 241 239 244 248 248 249 253 253 255 260 261 256 252 253 258 262 257 246 248 255 254 253 251 246 244 244 247 251 255 254 245 241 244 250 247 243 253 263 257 258 269 273 273 274 274 274 271 268 265 264 264 265 268 272 278
228 233 238 232 236 251 248 237 235 229 228 224 219 220 213 213 214 197 186 221 239 238 237 241 247 235 222 219 228 234 230 230 239 245 243 244 248 252 255 259 260 258 254 250 253 258 257 245 239 246 253 248 245 246 244 240 242 255 258 251 247 244 246 249 252 250 253 263 263 252 260 276 275 269 267 266 264 263 262 262 261 261 263 265 267 270
229 230 240 240 239 250 242 232 237 229 222 217 211 212 222 219 212 204 197 211 235 238 234 228 236 239 224 211 217 225 225 232 248 254 246 243 246 250 255 259 258 257 255 252 254 257 247 236 241 251 249 243 241 242 244 244 248 260 264 260 259 261 262 259 255 251 252 252 245 252 279 284 273 264 263 261 260 260 261 261 260 259 260 261 265 269
231 231 236 242 239 237 233 222 227 235 214 198 201 199 213 228 221 215 212 219 238 238 232 225 227 233 225 213 224 237 238 239 248 251 244 241 245 250 252 253 254 254 254 254 253 247 237 235 248 252 240 235 243 247 244 247 258 263 257 257 260 265 268 267 263 257 249 239 242 267 286 281 266 261 263 262 258 257 258 259 259 257 259 261 265 271
225 232 235 239 235 228 230 215 197 226 211 196 202 204 203 215 221 221 222 225 232 232 231 229 232 237 231 219 225 236 236 230 231 237 239 235 239 248 246 241 249 255 257 254 246 238 236 238 246 247 241 242 246 246 254 260 264 262 256 259 267 274 271 264 260 258 250 244 254 272 277 266 257 258 260 260 257 256 256 257 259 260 261 263 265 270
225 234 238 238 232 226 227 216 199 209 208 201 209 211 201 207 216 216 221 227 229 230 229 225 230 238 235 225 221 221 220 221 219 219 225 227 230 243 246 239 248 259 261 253 245 244 244 239 240 247 255 257 246 239 262 265 255 254 260 265 278 289 284 272 262 261 259 259 265 268 259 250 248 245 249 254 255 256 258 260 262 266 268 270 271 273
233 238 241 240 233 229 227 222 216 218 215 209 211 209 197 200 213 210 215 226 232 233 230 225 225 228 231 230 222 217 220 221 218 218 225 232 235 245 254 251 249 252 252 247 245 247 246 242 245 251 254 253 247 247 261 255 243 247 255 261 273 286 285 280 280 280 273 268 266 256 241 239 240 237 240 246 249 253 257 260 264 269 275 278 280 280
234 238 241 239 235 235 232 223 220 222 223 217 209 208 206 208 212 211 214 222 227 230 227 226 226 218 221 231 227 224 229 229 223 225 231 242 244 242 248 253 251 248 246 243 244 246 245 248 254 259 256 247 245 260 266 256 249 249 255 261 269 277 279 280 285 292 288 272 257 236 222 232 240 241 242 244 248 253 256 260 263 269 276 282 286 290
228 232 239 239 234 235 230 218 217 215 216 218 208 205 211 215 214 211 215 217 215 221 219 221 229 222 218 229 230 225 227 227 226 227 228 236 240 237 241 249 252 250 247 245 244 243 244 251 259 272 271 252 242 266 278 263 254 256 261 264 268 272 272 276 283 293 295 271 240 219 219 237 245 245 247 249 253 256 257 260 263 268 276 282 289 297
227 228 233 236 232 230 221 214 220 216 208 218 218 213 213 217 217 216 221 220 212 218 220 220 226 224 221 228 231 228 226 224 224 225 226 233 238 240 242 248 252 253 255 254 247 244 248 252 255 270 276 259 249 258 270 271 264 264 266 263 266 272 271 275 283 287 283 262 241 240 249 255 249 244 245 249 253 255 257 259 259 263 272 281 290 299
225 222 220 224 231 232 220 212 221 218 206 210 217 217 217 220 223 223 228 227 216 217 222 225 226 223 224 232 235 238 236 228 225 226 230 236 241 244 245 247 252 255 257 254 249 249 252 249 247 253 254 254 253 248 257 278 278 272 271 268 267 273 278 281 285 283 275 267 262 263 264 263 257 251 248 249 252 252 255 256 253 254 264 277 289 297
223 220 213 210 218 228 220 210 215 213 201 203 213 211 209 214 219 223 227 226 217 216 219 226 238 234 226 230 236 240 240 235 234 236 234 235 239 243 244 246 251 253 252 250 250 250 247 240 246 249 236 239 257 256 267 282 281 276 277 278 277 278 280 280 280 280 277 275 275 275 272 270 270 264 256 253 253 252 253 253 250 253 261 274 285 288
225 223 217 210 207 216 225 219 215 212 204 209 217 207 205 212 214 217 225 225 219 221 218 217 235 242 233 233 238 241 244 243 245 246 240 235 236 238 241 243 247 251 254 255 249 242 239 245 261 268 267 276 281 277 278 280 279 280 282 282 280 278 278 277 277 277 274 272 275 275 269 269 277 274 258 250 249 251 253 253 254 260 265 273 280 281
228 224 219 209 196 202 224 231 224 217 214 218 218 207 204 213 216 217 222 222 216 219 220 214 225 237 238 239 243 247 249 247 249 252 247 244 241 237 238 241 243 248 256 258 251 248 261 277 282 284 284 287 284 279 279 279 279 280 281 280 279 275 273 272 270 270 267 267 272 273 268 270 280 280 258 245 247 254 260 262 261 264 267 271 275 276
229 224 217 208 195 194 206 233 239 227 219 221 219 215 212 212 218 221 222 223 218 213 217 220 225 234 238 240 245 247 245 242 246 250 251 252 251 247 247 248 247 247 249 253 256 264 276 281 280 280 279 279 278 277 279 280 281 281 280 279 277 273 270 268 265 264 266 270 273 271 269 271 278 279 261 250 252 259 264 264 263 263 265 268 270 271
227 224 220 220 217 204 191 203 230 228 220 222 221 221 224 223 223 222 222 228 225 218 219 223 228 234 237 237 243 247 247 246 246 247 249 253 254 253 253 253 255 255 255 262 270 275 276 274 273 273 272 274 277 278 279 281 282 283 282 278 275 271 268 263 261 262 267 271 271 269 267 269 272 273 267 260 258 259 258 257 258 259 260 262 264 266
221 222 222 224 227 222 208 207 219 217 213 224 224 217 221 229 232 230 228 230 231 228 225 227 234 240 238 236 239 244 249 251 251 250 249 249 247 245 246 249 253 256 259 264 270 271 270 271 271 272 272 273 275 277 279 280 280 280 278 275 272 270 267 263 261 263 268 269 268 267 267 268 270 271 269 267 262 256 251 251 252 253 255 256 257 260
214 216 220 222 224 225 222 220 221 214 206 213 221 217 215 218 225 231 235 235 236 235 226 222 233 241 241 240 238 242 247 249 252 255 255 252 244 239 239 242 247 251 254 258 262 264 266 268 269 271 273 273 272 274 277 278 278 277 277 276 275 271 268 267 265 267 270 269 265 265 267 268 269 270 268 265 259 253 250 249 250 251 252 254 255 258
217 217 220 222 223 223 221 221 222 217 210 208 214 219 221 223 220 218 222 228 233 236 232 228 231 235 237 239 237 240 244 246 249 254 258 258 251 241 238 239 243 247 251 255 257 260 263 265 267 270 273 274 274 274 276 277 277 277 277 277 276 273 270 269 268 269 269 268 266 265 266 267 266 265 263 260 255 253 252 252 252 252 252 253 255 257
224 223 222 223 226 224 221 222 221 220 217 211 211 215 217 226 231 222 217 218 223 229 233 234 233 233 235 236 235 235 238 242 245 248 251 253 251 245 241 240 243 245 249 253 255 258 261 263 265 267 271 274 275 275 276 277 277 280 282 277 270 267 267 267 266 265 266 266 266 265 264 264 264 261 259 256 254 254 254 254 255 255 255 256 256 258
226 229 225 223 226 225 222 223 220 217 215 212 214 217 214 218 228 227 223 221 221 224 230 234 235 235 235 236 237 238 240 243 245 246 247 245 241 240 239 239 241 243 246 249 252 255 258 260 262 264 266 269 271 271 271 271 271 278 282 272 259 256 258 260 260 258 259 263 264 261 258 258 259 257 256 255 256 257 259 260 260 260 260 261 261 262
227 232 231 229 229 227 226 229 227 222 219 218 219 221 218 219 224 229 229 227 226 229 232 232 234 235 235 237 240 241 243 244 245 247 247 244 241 240 239 238 238 241 243 246 248 251 253 256 258 260 261 263 264 264 265 268 270 272 268 252 249 255 260 268 271 268 264 260 255 252 250 250 252 252 253 253 255 257 258 258 261 262 263 264 264 264
233 234 235 235 234 233 232 234 235 232 231 232 230 226 224 225 227 231 232 228 228 232 234 233 236 238 237 239 241 242 243 245 246 246 245 244 244 244 243 240 238 239 242 244 246 248 249 252 254 256 259 260 261 262 263 265 268 268 261 250 251 261 272 281 283 275 265 254 244 244 246 246 247 248 249 252 255 257 257 257 260 263 264 264 264 264
240 239 239 237 236 237 238 239 240 239 238 237 236 232 232 233 234 234 235 234 233 235 236 237 240 243 243 244 245 246 248 249 250 248 245 244 246 247 247 243 239 238 239 241 244 245 246 249 251 254 257 259 260 261 262 264 266 267 266 262 262 268 273 276 273 262 255 250 248 250 249 248 248 249 251 255 258 261 262 262 264 266 266 266 266 266
242 242 242 239 237 237 239 241 242 242 241 240 240 240 241 244 245 243 242 243 242 240 240 242 242 244 247 249 250 252 253 253 254 253 249 246 246 248 247 244 239 237 237 239 242 244 246 248 250 252 255 258 259 260 261 262 264 265 264 264 267 270 271 269 263 258 258 259 260 258 254 253 254 254 254 257 259 261 262 262 263 264 264 264 265 265
240 238 237 238 239 239 241 243 244 244 244 244 244 244 244 245 246 246 246 246 246 243 242 243 244 246 249 252 254 255 254 253 254 256 255 251 248 245 243 241 237 234 234 237 240 243 246 248 249 251 253 256 258 259 260 261 261 261 261 261 263 265 266 266 266 266 267 266 262 259 258 257 256 255 256 257 259 259 259 259 260 261 261 262 264 265
238 233 231 236 239 239 242 245 247 249 248 247 246 246 245 244 244 244 245 245 245 244 244 244 244 245 247 250 252 254 254 254 253 253 253 253 249 242 236 235 233 231 231 234 238 241 244 246 248 250 252 254 255 256 257 258 258 258 259 260 262 263 265 266 268 270 270 268 265 264 264 263 260 258 258 258 258 259 260 262 265 266 267 269 271 271
244 243 242 243 242 242 244 244 246 249 249 249 249 247 244 244 245 245 246 244 244 245 246 246 246 245 245 247 249 251 252 254 254 252 250 249 248 244 238 233 232 232 233 235 238 241 244 246 248 250 252 253 254 254 254 255 255 256 256 257 260 262 265 267 269 271 271 271 270 270 270 269 266 265 264 263 263 263 264 267 271 273 274 275 276 278
250 254 253 248 246 246 246 241 241 248 250 247 245 243 241 243 246 247 248 247 246 246 247 248 248 248 248 248 248 249 250 250 252 253 251 248 247 246 241 235 233 233 236 239 241 242 244 245 247 249 251 252 252 252 253 252 253 254 255 257 259 260 262 263 264 265 267 267 267 268 268 268 268 268 269 269 268 267 267 271 275 276 276 276 276 277
251 252 253 250 245 243 245 245 244 247 250 248 247 248 247 246 246 248 249 248 249 249 248 247 246 246 248 249 249 250 250 250 250 251 252 252 251 249 246 241 237 236 236 240 243 245 246 246 246 247 251 254 254 253 253 252 252 253 255 256 258 258 260 260 259 260 262 262 263 265 265 266 268 271 272 272 270 269 270 274 277 277 276 275 273 271
251 250 250 250 246 244 250 254 251 247 247 248 251 251 246 243 245 249 250 251 252 252 251 251 250 248 248 249 251 251 250 250 250 250 251 252 252 252 252 250 246 243 241 242 244 246 247 247 247 247 249 253 254 253 253 252 251 251 252 253 254 255 256 256 256 258 259 260 262 264 265 266 268 270 269 266 266 267 270 273 276 276 275 274 272 269
250 250 249 249 249 249 252 255 254 251 248 245 247 248 249 253 254 251 249 250 252 252 251 252 255 254 252 253 253 252 250 249 249 249 249 249 250 251 251 250 248 246 244 243 244 244 245 247 249 250 250 252 255 256 256 255 253 251 252 252 253 255 255 255 255 256 257 258 260 261 262 263 265 264 262 260 261 265 268 270 273 275 275 274 274 272
245 247 247 247 249 251 252 252 253 253 250 246 246 251 256 257 252 244 241 243 247 250 250 251 253 255 256 257 255 253 252 251 251 251 250 249 249 249 248 248 245 243 242 242 242 243 244 245 248 250 251 252 254 255 255 255 255 256 257 257 258 259 259 258 257 256 256 257 259 259 259 260 260 258 256 257 259 261 263 266 270 274 275 276 277 276
240 243 244 245 247 250 251 252 253 252 250 248 248 250 252 247 240 239 242 244 246 249 250 251 252 252 254 256 256 256 256 255 255 256 253 251 249 247 246 246 244 242 242 242 242 243 243 244 246 249 251 252 253 255 256 256 256 257 258 258 258 259 259 259 258 256 254 254 254 255 255 254 253 254 254 256 258 260 263 268 272 274 276 277 277 277
248 249 248 245 246 248 250 252 254 252 249 247 249 251 252 249 248 250 252 251 251 252 252 253 253 254 256 258 258 260 260 258 258 258 256 253 252 250 247 245 243 242 242 243 244 244 244 245 246 249 252 254 257 259 261 262 261 261 260 260 260 259 259 259 259 259 259 258 257 257 258 257 258 261 264 265 267 268 270 273 274 275 276 276 276 276
255 255 254 249 246 247 249 251 253 254 252 251 253 254 255 254 253 253 252 252 254 255 255 255 255 255 257 258 257 259 260 260 259 258 256 254 253 252 251 250 248 246 245 244 245 245 245 246 247 249 252 255 257 259 260 262 263 264 264 264 264 263 263 263 264 265 266 267 268 269 269 269 270 271 273 273 273 274 274 274 275 275 275 275 275 275
257 256 255 252 248 248 248 249 251 253 253 254 256 256 255 255 256 256 254 252 253 254 255 255 255 254 254 256 256 256 257 257 257 257 255 254 254 253 253 253 252 252 250 250 249 249 248 248 249 250 252 254 256 258 259 260 262 263 264 265 266 266 267 267 268 269 270 271 272 273 273 273 273 274 274 274 275 275 275 275 275 275 275 276 276 275
259 258 258 255 251 250 250 250 250 251 251 252 254 256 257 257 257 258 258 256 255 255 255 257 258 257 255 255 254 254 255 255 255 254 255 255 255 255 254 254 253 254 254 254 254 255 254 255 255 256 257 257 259 260 262 263 264 266 266 267 268 269 269 270 270 271 272 272 273 273 274 274 274 275 275 275 275 275 275 275 275 275 275 275 275 275
256 257 258 257 255 254 253 252 252 252 251 250 251 252 254 256 257 258 259 259 257 256 256 257 258 258 256 255 254 255 255 254 254 254 255 256 256 256 256 256 256 256 256 255 256 257 258 259 259 260 261 262 263 264 265 266 266 267 267 268 268 268 269 269 270 271 271 272 272 273 274 274 274 275 275 275 275 275 275 275 275 275 275 275 275 275
256 256 257 258 257 256 255 254 253 252 252 252 252 252 252 254 255 256 257 257 257 256 255 255 256 257 258 257 256 255 255 255 256 257 258 258 258 258 258 258 257 258 258 257 258 259 261 262 263 264 265 265 265 266 267 267 267 268 268 268 269 269 270 270 271 271 272 273 273 273 274 274 274 275 275 275 275 275 275 275 275 275 275 275 274 274
258 257 257 259 259 259 258 257 255 254 254 253 254 254 254 254 255 255 255 255 255 256 255 255 256 257 258 258 257 256 255 255 257 259 259 258 257 258 257 257 257 258 259 259 260 263 264 266 268 268 267 267 268 268 269 269 270 270 270 270 270 270 271 271 272 272 272 273 273 273 273 274 274 274 274 275 275 275 275 275 275 275 275 274 274 274
260 260 260 261 261 261 260 260 259 258 257 256 256 256 256 257 257 257 256 256 256 256 256 256 256 256 257 257 257 256 255 254 254 256 256 255 256 256 257 257 258 259 259 260 262 264 266 269 270 270 270 270 270 270 270 270 270 270 270 271 271 271 271 271 272 272 272 272 273 273 273 273 273 274 274 274 274 275 275 275 275 275 275 275 274 274
265 265 264 263 262 262 262 262 262 261 261 262 261 260 259 259 259 259 258 258 258 258 258 257 257 257 257 256 256 256 255 253 252 253 253 252 252 253 254 256 257 258 259 261 262 264 268 270 271 271 271 271 271 271 271 271 271 271 271 272 272 272 273 273 273 274 274 274 275 275 275 275 275 276 276 276 276 276 276 276 275 275 274 273 272 272
266 266 266 266 265 264 263 263 265 266 268 268 267 265 265 265 263 263 262 261 261 260 260 260 259 258 258 257 257 257 257 256 254 253 253 253 252 253 255 257 259 261 262 264 266 268 270 271 271 271 271 271 271 271 271 271 271 271 272 272 273 273 274 274 275 275 276 276 276 276 277 277 277 277 277 276 276 276 275 274 274 273 272 271 270 269
Height
5720 5721 5722 5724 5726 5727 5729 5729 5731 5734 5736 5737 5740 5742 5743 5744 5745 5748 5752 5755 5756 5754 5754 5755 5756 5759 5762 5763 5766 5769 5768 5767 5767 5767 5768 5769 5769 5771 5769 5767 5770 5771 5770 5770 5771 5773 5775 5777 5778 5777 5773 5771 5773 5776 5778 5782 5783 5780 5777 5776 5775 5774 5774 5773 5774 5776 5777 5778 5780 5782 5784 5785 5786 5788 5788 5788 5787 5786 5786 5785 5786 5787 5788 5788 5787 5787
5717 5718 5720 5722 5723 5724 5725 5726 5728 5731 5731 5732 5735 5738 5742 5743 5744 5747 5751 5755 5754 5752 5753 5753 5754 5757 5759 5761 5763 5766 5766 5765 5765 5766 5766 5767 5768 5768 5766 5766 5769 5770 5768 5768 5769 5771 5773 5773 5773 5771 5770 5771 5774 5777 5779 5781 5780 5776 5775 5776 5777 5775 5775 5773 5773 5774 5774 5776 5779 5780 5783 5784 5785 5786 5786 5786 5786 5786 5786 5786 5786 5787 5787 5787 5787 5787
5715 5717 5719 5720 5720 5721 5722 5724 5726 5727 5727 5729 5731 5734 5738 5742 5745 5746 5749 5753 5752 5749 5752 5753 5753 5754 5757 5759 5761 5763 5764 5764 5762 5763 5765 5765 5765 5765 5764 5764 5767 5768 5767 5766 5767 5768 5768 5768 5768 5769 5770 5771 5774 5777 5779 5779 5778 5778 5778 5778 5779 5778 5777 5776 5776 5775 5773 5774 5777 5777 5779 5782 5783 5784 5785 5786 5786 5786 5786 5786 5786 5787 5787 5786 5786 5787
5714 5715 5716 5717 5718 5719 5720 5721 5723 5724 5724 5727 5730 5732 5735 5739 5743 5745 5748 5752 5751 5745 5747 5752 5752 5753 5754 5756 5758 5760 5762 5763 5760 5760 5763 5763 5763 5763 5762 5761 5764 5766 5765 5764 5764 5763 5763 5765 5767 5770 5770 5770 5771 5774 5775 5775 5776 5778 5778 5779 5780 5780 5780 5779 5778 5777 5775 5773 5774 5776 5778 5780 5782 5783 5784 5785 5785 5785 5786 5786 5786 5786 5786 5786 5786 5785
5712 5712 5713 5714 5715 5716 5717 5718 5719 5721 5722 5725 5728 5730 5732 5736 5741 5745 5747 5748 5747 5742 5743 5749 5750 5750 5752 5753 5756 5757 5757 5761 5760 5758 5760 5762 5761 5760 5759 5758 5761 5765 5764 5761 5759 5758 5760 5764 5767 5768 5767 5766 5768 5770 5771 5772 5773 5775 5775 5776 5777 5778 5777 5777 5777 5776 5775 5774 5775 5777 5779 5780 5782 5783 5784 5784 5784 5784 5785 5785 5785 5785 5785 5785 5784 5784
5710 5710 5711 5712 5713 5714 5714 5715 5716 5718 5720 5723 5725 5727 5730 5733 5737 5743 5745 5744 5743 5741 5742 5745 5745 5746 5749 5750 5754 5755 5754 5757 5759 5756 5757 5760 5760 5758 5755 5756 5758 5762 5761 5756 5754 5755 5759 5762 5765 5765 5763 5763 5767 5768 5769 5770 5771 5772 5772 5773 5774 5775 5775 5776 5776 5775 5776 5777 5778 5779 5780 5781 5782 5783 5783 5784 5784 5784 5784 5784 5784 5784 5784 5783 5783 5782
5707 5708 5709 5711 5712 5713 5712 5712 5714 5716 5718 5720 5723 5726 5729 5731 5732 5736 5741 5741 5740 5740 5740 5740 5741 5743 5746 5747 5751 5752 5752 5754 5755 5754 5756 5758 5757 5754 5752 5754 5757 5758 5756 5752 5751 5754 5757 5760 5763 5763 5760 5761 5764 5766 5767 5768 5769 5770 5771 5772 5772 5774 5775 5776 5777 5777 5778 5779 5779 5780 5780 5781 5782 5782 5783 5783 5783 5783 5783 5783 5783 5783 5782 5782 5782 5782
5705 5705 5707 5709 5709 5710 5710 5711 5713 5714 5716 5718 5721 5724 5726 5729 5730 5731 5737 5739 5738 5737 5738 5737 5738 5741 5743 5746 5748 5749 5750 5751 5751 5751 5754 5755 5753 5750 5749 5753 5756 5754 5751 5750 5751 5753 5757 5759 5761 5760 5759 5760 5762 5764 5766 5767 5768 5769 5769 5770 5770 5772 5774 5775 5777 5778 5779 5779 5780 5780 5780 5781 5781 5782 5782 5782 5782 5781 5781 5782 5782 5782 5782 5782 5781 5781
5704 5704 5704 5706 5707 5708 5709 5710 5711 5713 5715 5717 5720 5722 5724 5726 5729 5729 5732 5736 5735 5734 5735 5735 5737 5739 5740 5745 5747 5747 5748 5748 5747 5749 5751 5751 5749 5748 5748 5751 5751 5748 5746 5748 5749 5751 5755 5756 5757 5758 5758 5758 5760 5763 5765 5766 5767 5768 5768 5769 5769 5771 5773 5774 5775 5777 5778 5779 5780 5780 5780 5781 5781 5781 5781 5780 5780 5780 5780 5781 5781 5781 5781 5781 5781 5780
5701 5702 5702 5704 5706 5708 5708 5709 5710 5711 5714 5716 5717 5719 5722 5724 5726 5728 5729 5732 5732 5730 5732 5733 5735 5736 5738 5742 5744 5744 5745 5746 5746 5747 5748 5747 5745 5745 5747 5748 5744 5742 5744 5746 5747 5750 5753 5754 5755 5756 5756 5757 5758 5760 5762 5764 5765 5766 5767 5768 5768 5770 5771 5772 5773 5773 5775 5777 5778 5779 5780 5780 5780 5779 5779 5779 5779 5779 5780 5780 5781 5781 5781 5780 5780 5780
5699 5700 5700 5701 5704 5706 5707 5707 5709 5711 5713 5715 5716 5718 5721 5723 5724 5725 5726 5729 5729 5728 5729 5732 5733 5734 5736 5739 5740 5741 5743 5745 5745 5745 5744 5744 5743 5742 5745 5744 5738 5738 5742 5743 5745 5749 5751 5753 5754 5753 5755 5757 5758 5759 5761 5762 5763 5765 5766 5767 5767 5769 5769 5769 5770 5770 5772 5774 5776 5777 5778 5778 5777 5777 5778 5778 5778 5778 5778 5779 5780 5780 5780 5779 5779 5779
5697 5698 5698 5699 5702 5704 5705 5706 5708 5711 5711 5712 5714 5716 5718 5721 5721 5722 5724 5726 5726 5726 5728 5731 5732 5733 5734 5736 5737 5739 5740 5741 5743 5742 5741 5742 5740 5738 5741 5740 5734 5736 5740 5741 5744 5747 5749 5750 5751 5751 5754 5756 5757 5758 5759 5761 5762 5763 5764 5765 5766 5767 5767 5767 5767 5768 5770 5772 5774 5775 5775 5775 5775 5775 5776 5776 5776 5776 5777 5777 5778 5779 5779 5778 5778 5778
5695 5695 5696 5699 5701 5702 5703 5705 5707 5709 5709 5709 5712 5713 5716 5719 5719 5720 5722 5722 5722 5724 5727 5730 5731 5731 5732 5733 5735 5737 5736 5737 5739 5739 5738 5739 5738 5736 5737 5737 5735 5736 5738 5740 5743 5745 5746 5748 5749 5751 5752 5752 5753 5755 5757 5759 5761 5762 5763 5764 5765 5766 5766 5766 5766 5767 5768 5770 5771 5772 5772 5773 5773 5773 5773 5774 5775 5775 5775 5776 5777 5777 5777 5777 5777 5777
5693 5694 5695 5698 5699 5700 5702 5704 5705 5707 5707 5708 5711 5712 5714 5716 5717 5718 5719 5720 5721 5724 5726 5728 5729 5729 5729 5730 5731 5732 5732 5734 5735 5734 5735 5738 5738 5737 5734 5733 5735 5736 5736 5739 5742 5743 5745 5747 5749 5750 5750 5750 5750 5753 5756 5758 5759 5760 5761 5762 5763 5764 5765 5765 5764 5765 5766 5767 5768 5769 5770 5771 5771 5771 5771 5772 5773 5773 5774 5775 5776 5776 5776 5776 5776 5776
5691 5692 5694 5696 5698 5699 5701 5703 5704 5705 5706 5707 5710 5711 5712 5713 5714 5716 5718 5719 5721 5723 5725 5726 5726 5726 5726 5725 5727 5729 5732 5735 5734 5732 5734 5737 5737 5736 5731 5727 5730 5734 5735 5739 5742 5743 5745 5747 5748 5747 5747 5747 5748 5750 5753 5756 5757 5758 5759 5760 5761 5762 5763 5763 5763 5764 5765 5765 5766 5766 5768 5769 5770 5770 5771 5771 5771 5772 5773 5774 5774 5775 5775 5775 5775 5775
5689 5691 5692 5694 5696 5697 5699 5701 5702 5703 5705 5706 5708 5709 5710 5711 5713 5714 5716 5717 5719 5720 5721 5722 5722 5723 5723 5722 5724 5729 5731 5732 5732 5732 5733 5732 5732 5732 5729 5726 5728 5731 5734 5738 5741 5742 5743 5744 5745 5744 5743 5744 5744 5747 5750 5752 5754 5755 5757 5758 5759 5760 5761 5761 5762 5763 5763 5764 5764 5765 5767 5768 5769 5769 5770 5770 5770 5771 5772 5772 5773 5773 5773 5773 5773 5773
5688 5690 5692 5693 5693 5694 5697 5699 5699 5701 5704 5705 5707 5708 5708 5710 5712 5713 5714 5715 5717 5717 5718 5719 5719 5720 5721 5721 5723 5726 5726 5728 5731 5732 5729 5728 5727 5728 5729 5728 5727 5728 5731 5735 5737 5739 5740 5742 5742 5743 5742 5742 5742 5744 5747 5750 5752 5753 5754 5756 5756 5757 5758 5759 5760 5761 5761 5762 5763 5764 5765 5767 5768 5768 5769 5769 5769 5770 5770 5771 5771 5771 5771 5772 5772 5771
5686 5688 5689 5691 5692 5693 5695 5697 5698 5700 5702 5703 5705 5707 5709 5710 5711 5711 5712 5713 5714 5716 5716 5717 5717 5718 5720 5721 5721 5722 5722 5726 5729 5728 5727 5727 5726 5726 5728 5728 5726 5726 5728 5731 5734 5736 5738 5740 5741 5742 5743 5742 5740 5741 5744 5747 5749 5750 5751 5752 5753 5754 5755 5756 5757 5758 5759 5760 5761 5762 5763 5764 5765 5766 5767 5767 5767 5768 5768 5769 5769 5769 5770 5770 5770 5770
5683 5684 5686 5688 5691 5692 5693 5695 5696 5698 5700 5702 5703 5704 5706 5708 5709 5709 5710 5710 5712 5714 5715 5716 5716 5717 5718 5718 5718 5718 5718 5722 5724 5724 5726 5727 5726 5726 5727 5727 5726 5726 5728 5730 5733 5734 5736 5739 5740 5741 5742 5741 5740 5739 5741 5744 5746 5747 5749 5750 5751 5752 5753 5754 5755 5755 5756 5757 5758 5759 5760 5761 5762 5763 5764 5764 5765 5766 5766 5767 5767 5768 5768 5768 5768 5769
5680 5682 5684 5686 5689 5691 5691 5692 5694 5695 5697 5699 5700 5701 5703 5704 5705 5706 5707 5709 5711 5712 5713 5716 5715 5714 5714 5715 5715 5714 5716 5720 5720 5719 5722 5724 5724 5725 5726 5726 5726 5726 5727 5729 5732 5733 5733 5735 5736 5736 5736 5735 5736 5736 5737 5740 5742 5744 5746 5747 5748 5750 5751 5752 5752 5753 5753 5754 5755 5757 5757 5758 5758 5759 5760 5762 5763 5764 5765 5765 5765 5766 5766 5767 5767 5767
5678 5680 5683 5683 5686 5688 5689 5690 5692 5693 5695 5696 5697 5699 5701 5702 5703 5704 5705 5707 5709 5710 5711 5714 5712 5711 5712 5713 5713 5714 5716 5718 5716 5715 5716 5718 5720 5722 5724 5725 5726 5725 5725 5726 5729 5729 5727 5727 5727 5727 5728 5729 5731 5733 5735 5737 5740 5742 5743 5744 5746 5748 5749 5749 5749 5750 5750 5751 5752 5754 5755 5755 5755 5756 5757 5759 5761 5762 5763 5763 5763 5764 5764 5764 5765 5765
5675 5678 5681 5681 5682 5684 5687 5689 5690 5691 5693 5695 5696 5698 5699 5700 5702 5703 5703 5704 5706 5708 5709 5710 5709 5708 5709 5710 5711 5712 5714 5714 5713 5713 5713 5713 5715 5716 5718 5721 5723 5724 5724 5724 5724 5721 5719 5721 5723 5724 5726 5728 5730 5732 5733 5735 5737 5739 5740 5742 5743 5745 5745 5746 5746 5747 5748 5748 5749 5751 5752 5752 5753 5753 5754 5756 5758 5759 5760 5760 5761 5761 5762 5762 5762 5762
5671 5674 5677 5678 5679 5681 5683 5685 5686 5688 5691 5692 5694 5696 5697 5698 5699 5700 5701 5702 5703 5705 5705 5706 5705 5706 5707 5707 5708 5708 5709 5711 5711 5712 5713 5713 5713 5713 5714 5716 5717 5719 5720 5720 5718 5717 5718 5720 5722 5724 5726 5727 5728 5730 5731 5732 5734 5735 5737 5739 5740 5741 5741 5742 5743 5744 5745 5746 5747 5748 5749 5749 5749 5750 5751 5752 5754 5755 5756 5757 5758 5758 5759 5759 5760 5760
5667 5670 5673 5674 5676 5678 5680 5681 5682 5685 5688 5690 5690 5692 5694 5695 5696 5697 5699 5700 5700 5701 5703 5703 5703 5703 5704 5705 5705 5705 5705 5706 5708 5709 5711 5713 5713 5713 5713 5713 5714 5715 5716 5715 5715 5716 5717 5718 5719 5721 5722 5724 5726 5727 5728 5730 5731 5732 5734 5735 5736 5736 5738 5739 5740 5741 5742 5743 5744 5744 5745 5745 5746 5746 5747 5748 5749 5751 5752 5753 5754 5755 5756 5756 5757 5757
5663 5666 5669 5670 5671 5674 5677 5679 5679 5681 5683 5685 5687 5689 5690 5692 5693 5694 5695 5696 5697 5698 5700 5700 5699 5700 5701 5703 5703 5703 5702 5703 5704 5705 5707 5709 5711 5713 5713 5713 5713 5714 5714 5714 5714 5715 5715 5716 5717 5718 5719 5721 5723 5724 5726 5727 5728 5729 5730 5731 5732 5732 5733 5735 5736 5737 5738 5739 5740 5740 5741 5741 5742 5743 5744 5745 5746 5747 5749 5750 5751 5752 5753 5754 5755 5755
5661 5663 5664 5666 5667 5670 5672 5674 5676 5677 5678 5680 5684 5686 5688 5689 5689 5689 5690 5691 5693 5695 5696 5696 5695 5697 5698 5699 5701 5701 5700 5701 5701 5701 5703 5705 5707 5710 5711 5711 5712 5712 5712 5712 5713 5714 5714 5714 5715 5716 5716 5717 5719 5721 5722 5723 5724 5725 5725 5726 5727 5728 5729 5730 5732 5733 5734 5735 5735 5736 5737 5738 5738 5739 5740 5742 5743 5744 5746 5747 5748 5749 5750 5751 5752 5753
5659 5660 5662 5663 5665 5667 5668 5670 5673 5674 5675 5677 5679 5680 5683 5685 5685 5686 5686 5687 5689 5691 5691 5691 5692 5694 5695 5696 5698 5698 5699 5699 5699 5700 5701 5702 5704 5706 5707 5709 5710 5710 5710 5711 5711 5712 5712 5713 5714 5714 5714 5714 5715 5717 5719 5720 5721 5721 5721 5722 5723 5724 5725 5726 5728 5729 5730 5730 5731 5732 5733 5735 5736 5737 5738 5739 5740 5741 5743 5744 5745 5746 5747 5748 5750 5750
5657 5658 5660 5662 5663 5665 5666 5668 5670 5671 5671 5673 5674 5676 5678 5679 5680 5681 5682 5684 5686 5686 5686 5687 5689 5690 5691 5693 5694 5695 5696 5697 5697 5698 5699 5700 5701 5702 5704 5706 5708 5708 5708 5708 5709 5710 5711 5711 5712 5712 5713 5713 5714 5715 5716 5718 5719 5719 5720 5720 5720 5720 5721 5722 5723 5725 5727 5728 5729 5730 5731 5732 5733 5734 5735 5736 5737 5739 5740 5741 5742 5743 5744 5746 5747 5747
5654 5656 5657 5660 5661 5663 5664 5666 5667 5668 5669 5669 5671 5673 5675 5675 5675 5677 5679 5681 5682 5682 5683 5684 5686 5687 5689 5691 5691 5692 5694 5695 5696 5697 5697 5697 5698 5700 5702 5703 5705 5705 5706 5706 5707 5709 5710 5710 5710 5711 5711 5712 5713 5714 5715 5716 5717 5718 5719 5721 5721 5719 5717 5718 5720 5721 5723 5725 5726 5727 5728 5729 5731 5732 5733 5734 5735 5736 5737 5738 5739 5741 5742 5743 5743 5744
5652 5653 5655 5657 5659 5660 5662 5663 5664 5665 5666 5667 5668 5670 5670 5672 5673 5674 5675 5677 5678 5679 5680 5682 5682 5684 5686 5688 5689 5690 5692 5692 5693 5694 5694 5694 5696 5698 5699 5700 5702 5703 5703 5704 5705 5707 5708 5708 5709 5709 5710 5711 5711 5712 5714 5715 5715 5716 5718 5720 5721 5720 5719 5719 5719 5719 5719 5720 5721 5723 5725 5726 5728 5729 5730 5731 5732 5733 5734 5735 5736 5737 5738 5739 5740 5741
5649 5651 5652 5654 5655 5656 5658 5659 5660 5662 5663 5664 5665 5666 5668 5669 5670 5671 5672 5674 5675 5676 5678 5679 5680 5681 5683 5684 5686 5687 5688 5689 5690 5691 5691 5691 5693 5695 5697 5698 5699 5700 5701 5702 5703 5705 5706 5707 5707 5708 5708 5709 5709 5710 5711 5711 5712 5714 5715 5715 5717 5718 5717 5718 5719 5720 5719 5718 5718 5720 5722 5723 5725 5726 5727 5728 5729 5730 5731 5732 5733 5734 5735 5736 5736 5737
5646 5648 5650 5651 5652 5653 5654 5655 5656 5657 5658 5660 5662 5664 5666 5666 5667 5669 5670 5670 5671 5673 5674 5675 5676 5678 5680 5681 5682 5684 5685 5686 5687 5688 5688 5688 5690 5692 5694 5696 5697 5698 5699 5700 5701 5702 5703 5704 5705 5706 5706 5706 5707 5708 5708 5708 5709 5710 5711 5711 5711 5712 5713 5714 5716 5717 5718 5718 5717 5717 5718 5720 5721 5722 5723 5724 5725 5726 5727 5728 5729 5730 5731 5732 5733 5734
5643 5645 5646 5647 5648 5650 5651 5651 5652 5653 5655 5657 5658 5660 5662 5662 5663 5664 5665 5666 5667 5668 5669 5671 5673 5675 5676 5678 5679 5679 5680 5682 5683 5685 5686 5687 5689 5690 5692 5694 5695 5696 5697 5698 5699 5700 5700 5701 5702 5703 5704 5704 5704 5705 5705 5705 5706 5706 5706 5707 5708 5708 5708 5709 5711 5712 5713 5713 5713 5714 5715 5716 5717 5718 5719 5721 5721 5722 5723 5725 5725 5727 5728 5728 5729 5730
5641 5642 5643 5644 5645 5647 5648 5648 5649 5650 5652 5653 5655 5656 5657 5658 5658 5660 5660 5660 5661 5663 5665 5667 5669 5671 5673 5674 5674 5675 5676 5678 5679 5681 5683 5685 5686 5687 5689 5690 5691 5692 5694 5695 5695 5696 5697 5698 5699 5700 5701 5701 5701 5702 5702 5702 5702 5702 5703 5703 5704 5704 5704 5705 5707 5707 5708 5709 5709 5710 5711 5712 5714 5714 5715 5717 5717 5718 5719 5720 5720 5722 5722 5723 5723 5724
5638 5639 5640 5641 5642 5644 5645 5646 5646 5647 5649 5650 5651 5652 5653 5653 5654 5655 5656 5656 5657 5658 5660 5661 5664 5666 5668 5669 5670 5671 5672 5673 5675 5677 5679 5681 5683 5684 5685 5686 5688 5689 5690 5691 5692 5693 5693 5694 5695 5696 5696 5697 5697 5697 5698 5699 5699 5699 5699 5699 5700 5701 5701 5702 5704 5704 5705 5705 5706 5706 5707 5708 5709 5709 5710 5712 5712 5713 5713 5714 5714 5715 5716 5716 5717 5717
5634 5636 5637 5638 5639 5640 5642 5643 5643 5645 5646 5647 5648 5648 5649 5650 5650 5651 5652 5652 5653 5654 5655 5656 5658 5661 5663 5664 5666 5667 5668 5669 5671 5673 5674 5676 5679 5681 5682 5683 5684 5686 5687 5688 5688 5689 5689 5690 5690 5691 5691 5691 5692 5692 5693 5694 5695 5694 5694 5695 5696 5696 5697 5699 5700 5700 5700 5701 5701 5701 5702 5703 5704 5704 5705 5706 5706 5706 5707 5707 5708 5709 5710 5710 5711 5712
5632 5633 5634 5635 5637 5638 5639 5639 5641 5643 5643 5644 5645 5645 5646 5647 5647 5648 5648 5649 5650 5650 5650 5652 5654 5656 5657 5658 5660 5662 5663 5665 5667 5669 5670 5672 5674 5676 5677 5679 5680 5681 5683 5683 5684 5685 5685 5685 5685 5686 5687 5687 5687 5688 5688 5689 5690 5690 5690 5690 5691 5691 5693 5694 5694 5694 5695 5695 5694 5695 5696 5697 5698 5699 5699 5699 5699 5700 5700 5701 5701 5702 5703 5704 5705 5706
5628 5630 5631 5633 5634 5635 5635 5636 5638 5638 5638 5640 5642 5642 5642 5643 5644 5644 5645 5646 5647 5646 5647 5649 5650 5651 5653 5653 5654 5656 5658 5660 5662 5664 5666 5667 5669 5671 5673 5674 5676 5677 5678 5679 5680 5680 5681 5681 5681 5683 5683 5682 5682 5683 5684 5684 5685 5685 5684 5685 5686 5686 5687 5689 5689 5689 5689 5689 5690 5691 5691 5692 5693 5693 5694 5694 5694 5694 5695 5695 5695 5696 5697 5698 5699 5700
5626 5627 5628 5629 5630 5630 5631 5632 5633 5633 5635 5638 5639 5638 5639 5639 5640 5641 5642 5643 5642 5642 5644 5646 5646 5647 5649 5649 5650 5651 5653 5655 5657 5659 5661 5662 5664 5666 5668 5669 5671 5672 5673 5674 5675 5675 5676 5676 5676 5678 5678 5677 5677 5678 5679 5678 5679 5679 5679 5680 5681 5681 5681 5683 5683 5683 5684 5685 5685 5686 5686 5686 5687 5687 5688 5688 5688 5688 5689 5689 5689 5690 5691 5692 5693 5694
5622 5623 5624 5625 5626 5627 5627 5628 5628 5629 5631 5633 5634 5635 5636 5636 5636 5637 5638 5639 5638 5639 5641 5643 5644 5644 5644 5644 5646 5647 5648 5651 5654 5655 5656 5658 5659 5661 5662 5664 5665 5666 5668 5669 5670 5671 5671 5672 5672 5673 5673 5672 5672 5673 5673 5673 5673 5674 5674 5675 5676 5676 5676 5677 5677 5677 5678 5678 5679 5679 5680 5680 5681 5681 5682 5682 5682 5683 5683 5683 5683 5684 5684 5685 5686 5687
5618 5619 5621 5622 5622 5623 5623 5623 5624 5626 5628 5629 5630 5631 5632 5633 5634 5634 5634 5634 5634 5635 5638 5638 5639 5640 5640 5641 5642 5644 5645 5648 5651 5651 5652 5653 5654 5656 5657 5658 5660 5661 5662 5664 5665 5666 5667 5667 5668 5668 5667 5667 5667 5667 5667 5667 5668 5669 5669 5669 5670 5671 5671 5671 5671 5671 5672 5672 5672 5672 5673 5673 5674 5674 5675 5675 5675 5676 5676 5676 5677 5677 5677 5677 5678 5678
5616 5617 5617 5617 5618 5619 5620 5620 5620 5622 5624 5625 5626 5627 5628 5630 5630 5630 5630 5630 5630 5632 5635 5634 5635 5637 5638 5638 5640 5640 5641 5644 5646 5647 5648 5649 5649 5651 5652 5653 5654 5655 5656 5657 5659 5660 5661 5661 5662 5662 5661 5661 5661 5661 5661 5662 5663 5663 5663 5664 5665 5665 5665 5665 5665 5665 5665 5666 5666 5666 5666 5666 5667 5667 5668 5668 5668 5668 5669 5669 5669 5669 5669 5669 5669 5670
5613 5614 5613 5613 5615 5616 5616 5616 5616 5618 5620 5622 5623 5623 5623 5624 5625 5625 5626 5626 5627 5629 5630 5629 5632 5635 5635 5634 5636 5636 5637 5639 5641 5642 5643 5643 5644 5646 5647 5648 5649 5650 5651 5652 5653 5654 5655 5655 5656 5656 5656 5656 5656 5656 5656 5656 5657 5657 5657 5658 5658 5659 5659 5659 5659 5659 5659 5659 5659 5659 5659 5659 5659 5659 5660 5660 5659 5660 5660 5660 5660 5660 5660 5660 5660 5661
5610 5610 5609 5610 5611 5612 5612 5613 5613 5615 5617 5619 5619 5618 5618 5619 5620 5620 5621 5623 5625 5625 5626 5626 5628 5631 5630 5630 5631 5632 5633 5634 5636 5637 5637 5638 5639 5641 5642 5643 5644 5645 5646 5647 5647 5648 5649 5649 5650 5650 5650 5650 5650 5650 5650 5650 5651 5650 5650 5651 5651 5652 5652 5652 5652 5651 5651 5651 5650 5651 5651 5651 5650 5650 5651 5651 5650 5651 5651 5651 5651 5651 5651 5651 5651 5651
5606 5606 5605 5606 5607 5608 5608 5609 5610 5611 5613 5614 5614 5613 5613 5614 5616 5615 5617 5620 5621 5621 5622 5623 5623 5625 5626 5626 5627 5628 5628 5629 5630 5631 5632 5633 5634 5635 5636 5637 5638 5639 5640 5641 5641 5642 5642 5643 5644 5644 5644 5644 5644 5644 5644 5644 5644 5644 5643 5644 5644 5644 5644 5644 5644 5643 5643 5642 5642 5642 5642 5642 5642 5642 5642 5642 5642 5642 5642 5642 5642 5642 5642 5642 5641 5641
5603 5602 5601 5601 5603 5603 5604 5605 5605 5607 5608 5610 5610 5609 5609 5610 5611 5611 5613 5616 5616 5617 5618 5619 5618 5619 5620 5621 5622 5623 5624 5624 5625 5625 5626 5628 5628 5629 5631 5632 5632 5633 5634 5635 5635 5635 5636 5637 5637 5638 5637 5637 5638 5637 5637 5638 5637 5636 5636 5636 5637 5636 5636 5636 5636 5636 5636 5635 5634 5634 5634 5634 5634 5634 5633 5633 5633 5632 5632 5632 5632 5632 5632 5632 5631 5631
5600 5599 5597 5598 5598 5599 5599 5600 5600 5601 5603 5604 5604 5604 5605 5606 5606 5607 5609 5610 5610 5612 5613 5613 5613 5614 5614 5615 5617 5618 5618 5619 5620 5620 5621 5622 5623 5624 5625 5626 5626 5627 5629 5629 5629 5629 5630 5631 5630 5630 5630 5630 5630 5630 5630 5630 5629 5628 5628 5629 5629 5629 5629 5628 5628 5628 5628 5627 5627 5627 5626 5626 5625 5625 5624 5624 5624 5623 5623 5622 5622 5622 5622 5621 5621 5620
5596 5595 5594 5595 5594 5595 5595 5594 5595 5596 5597 5599 5599 5599 5600 5600 5601 5602 5604 5604 5605 5606 5607 5608 5608 5609 5609 5610 5612 5613 5613 5615 5615 5615 5615 5616 5617 5619 5619 5620 5621 5621 5622 5623 5623 5622 5623 5624 5623 5623 5623 5623 5623 5623 5622 5622 5621 5621 5621 5621 5621 5620 5620 5620 5620 5620 5619 5619 5618 5618 5617 5617 5616 5616 5615 5614 5614 5613 5613 5613 5612 5612 5612 5611 5610 5609
5592 5592 5592 5591 5591 5591 5591 5590 5590 5591 5591 5593 5594 5595 5594 5594 5595 5596 5597 5598 5599 5600 5601 5602 5602 5602 5603 5604 5605 5607 5608 5609 5610 5609 5610 5611 5612 5613 5613 5614 5614 5615 5615 5616 5616 5616 5617 5617 5616 5616 5615 5615 5615 5615 5615 5614 5613 5613 5613 5612 5612 5612 5612 5611 5611 5611 5610 5609 5609 5608 5608 5607 5607 5606 5605 5605 5604 5603 5603 5603 5602 5602 5602 5601 5599 5598
5590 5589 5589 5588 5588 5588 5588 5587 5587 5587 5587 5588 5589 5590 5589 5589 5589 5589 5590 5592 5593 5593 5594 5596 5596 5596 5596 5598 5599 5601 5602 5603 5604 5603 5603 5605 5607 5607 5608 5608 5608 5608 5609 5609 5609 5609 5610 5610 5609 5608 5608 5608 5608 5608 5607 5606 5605 5605 5604 5604 5603 5603 5602 5602 5601 5601 5600 5600 5599 5598 5598 5597 5596 5596 5595 5594 5594 5593 5593 5592 5592 5592 5591 5591 5589 5588
5587 5586 5586 5586 5585 5585 5585 5584 5583 5584 5584 5585 5585 5585 5585 5584 5584 5584 5585 5587 5587 5587 5588 5588 5588 5588 5589 5590 5593 5595 5595 5596 5597 5596 5596 5599 5600 5601 5602 5602 5600 5601 5603 5603 5602 5603 5603 5602 5601 5601 5601 5600 5600 5600 5599 5598 5597 5597 5596 5596 5595 5594 5594 5593 5593 5593 5592 5591 5590 5589 5588 5588 5587 5586 5585 5584 5584 5584 5583 5583 5583 5582 5581 5580 5579 5578